Météo par heure à Jukow

Ce jour, 20 Juin, Dimanche

Heure Température Précipitation Vent Pression Humidité
00:00 +24°C° 0 mm 3 m/s 750 mmHg 74%
01:00 +22°C° 0 mm 3 m/s 750 mmHg 76%
02:00 +21°C° 0 mm 3 m/s 750 mmHg 80%
03:00 +20°C° 0 mm 3 m/s 750 mmHg 83%
04:00 +20°C° 0 mm 3 m/s 750 mmHg 87%
05:00 +21°C° 0 mm 3 m/s 750 mmHg 81%
06:00 +22°C° 0 mm 4 m/s 750 mmHg 76%
07:00 +23°C° 0 mm 4 m/s 750 mmHg 71%
08:00 +26°C° 0 mm 4 m/s 750 mmHg 64%
09:00 +27°C° 0 mm 5 m/s 750 mmHg 57%
10:00 +28°C° 0 mm 5 m/s 750 mmHg 51%
11:00 +29°C° 0 mm 5 m/s 749 mmHg 49%
12:00 +30°C° 0 mm 5 m/s 749 mmHg 47%
13:00 +30°C° 0 mm 5 m/s 749 mmHg 45%
14:00 +30°C° 0 mm 5 m/s 749 mmHg 45%
15:00 +32°C° 0 mm 5 m/s 748 mmHg 46%
16:00 +32°C° 0 mm 4 m/s 748 mmHg 46%
17:00 +29°C° 0 mm 4 m/s 748 mmHg 53%
18:00 +28°C° 0 mm 4 m/s 747 mmHg 61%
19:00 +26°C° 0 mm 3 m/s 747 mmHg 68%
20:00 +25°C° 0 mm 3 m/s 747 mmHg 72%
21:00 +24°C° 0 mm 3 m/s 747 mmHg 75%
22:00 +22°C° 0 mm 3 m/s 748 mmHg 78%
23:00 +21°C° 0 mm 3 m/s 747 mmHg 82%

Demain, 21 Juin, Lundi

Heure Température Précipitation Vent Pression Humidité
00:00 +21°C° 0 mm 3 m/s 747 mmHg 85%
01:00 +20°C° 0 mm 3 m/s 747 mmHg 88%
02:00 +20°C° 0 mm 3 m/s 747 mmHg 88%
03:00 +20°C° 0 mm 3 m/s 746 mmHg 88%
04:00 +19°C° 0 mm 3 m/s 746 mmHg 88%
05:00 +21°C° 0 mm 4 m/s 746 mmHg 83%
06:00 +22°C° 0 mm 5 m/s 746 mmHg 77%
07:00 +25°C° 0 mm 5 m/s 746 mmHg 72%
08:00 +26°C° 0 mm 6 m/s 746 mmHg 67%
09:00 +27°C° 0 mm 6 m/s 746 mmHg 62%
10:00 +29°C° 0 mm 6 m/s 746 mmHg 57%
11:00 +29°C° 0 mm 6 m/s 746 mmHg 54%
12:00 +30°C° 0 mm 5 m/s 746 mmHg 50%
13:00 +32°C° 0 mm 5 m/s 746 mmHg 47%
14:00 +32°C° 0 mm 5 m/s 745 mmHg 48%
15:00 +32°C° 0 mm 5 m/s 745 mmHg 48%
16:00 +32°C° 0 mm 5 m/s 745 mmHg 49%
17:00 +29°C° 0 mm 4 m/s 745 mmHg 56%
18:00 +28°C° 0 mm 4 m/s 745 mmHg 62%
19:00 +27°C° 0 mm 3 m/s 745 mmHg 68%
20:00 +26°C° 0.1 mm 3 m/s 745 mmHg 72%
21:00 +25°C° 0.1 mm 3 m/s 745 mmHg 76%
22:00 +24°C° 0.1 mm 3 m/s 745 mmHg 79%
23:00 +23°C° 0.2 mm 2 m/s 745 mmHg 84%

Après-demain, 22 Juin, Mardi

Heure Température Précipitation Vent Pression Humidité
00:00 +21°C° 0.2 mm 2 m/s 745 mmHg 89%
01:00 +21°C° 0.2 mm 1 m/s 745 mmHg 93%
02:00 +19°C° 0.2 mm 2 m/s 745 mmHg 93%
03:00 +19°C° 0.2 mm 2 m/s 745 mmHg 94%
04:00 +19°C° 0.2 mm 2 m/s 745 mmHg 94%
05:00 +20°C° 0.5 mm 2 m/s 746 mmHg 91%
06:00 +21°C° 0.5 mm 2 m/s 746 mmHg 88%
07:00 +23°C° 0.5 mm 2 m/s 747 mmHg 84%
08:00 +25°C° 0 mm 2 m/s 747 mmHg 78%
09:00 +26°C° 0 mm 3 m/s 747 mmHg 71%
10:00 +28°C° 0 mm 3 m/s 747 mmHg 65%
11:00 +28°C° 0 mm 3 m/s 747 mmHg 62%
12:00 +29°C° 0 mm 3 m/s 747 mmHg 59%
13:00 +30°C° 0 mm 3 m/s 747 mmHg 56%
14:00 +30°C° 0.1 mm 3 m/s 747 mmHg 57%
15:00 +29°C° 0.1 mm 3 m/s 747 mmHg 58%
16:00 +29°C° 0.1 mm 3 m/s 747 mmHg 59%
17:00 +28°C° 0.2 mm 3 m/s 747 mmHg 65%
18:00 +27°C° 0.2 mm 3 m/s 747 mmHg 71%
19:00 +26°C° 0.2 mm 3 m/s 747 mmHg 77%
20:00 +25°C° 0 mm 3 m/s 747 mmHg 83%
21:00 +22°C° 0 mm 3 m/s 748 mmHg 88%
22:00 +21°C° 0 mm 3 m/s 748 mmHg 94%
23:00 +20°C° 0 mm 3 m/s 748 mmHg 94%

23 Juin, Mercredi

Heure Température Précipitation Vent Pression Humidité
00:00 +19°C° 0 mm 3 m/s 748 mmHg 95%
01:00 +19°C° 0 mm 3 m/s 748 mmHg 96%
02:00 +18°C° 0 mm 3 m/s 748 mmHg 96%
03:00 +18°C° 0 mm 3 m/s 748 mmHg 97%
04:00 +18°C° 0 mm 3 m/s 748 mmHg 97%
05:00 +20°C° 0 mm 2 m/s 748 mmHg 92%
06:00 +21°C° 0 mm 2 m/s 748 mmHg 87%
07:00 +24°C° 0 mm 2 m/s 749 mmHg 81%
08:00 +26°C° 0 mm 2 m/s 749 mmHg 75%
09:00 +27°C° 0 mm 2 m/s 749 mmHg 68%
10:00 +29°C° 0 mm 2 m/s 749 mmHg 62%
11:00 +30°C° 0 mm 2 m/s 749 mmHg 59%
12:00 +31°C° 0 mm 2 m/s 749 mmHg 56%
13:00 +31°C° 0 mm 2 m/s 749 mmHg 53%
14:00 +31°C° 0.2 mm 3 m/s 749 mmHg 56%
15:00 +30°C° 0.2 mm 5 m/s 749 mmHg 60%
16:00 +29°C° 0.2 mm 6 m/s 749 mmHg 63%
17:00 +28°C° 0.6 mm 5 m/s 749 mmHg 70%
18:00 +26°C° 0.6 mm 5 m/s 750 mmHg 77%
19:00 +23°C° 0.6 mm 5 m/s 750 mmHg 83%
20:00 +21°C° 0.1 mm 4 m/s 750 mmHg 85%
21:00 +19°C° 0.1 mm 4 m/s 751 mmHg 88%
22:00 +18°C° 0.1 mm 4 m/s 751 mmHg 90%
23:00 +17°C° 0 mm 4 m/s 751 mmHg 91%

24 Juin, Jeudi

Heure Température Précipitation Vent Pression Humidité
00:00 +15°C° 0 mm 4 m/s 751 mmHg 93%
01:00 +14°C° 0 mm 4 m/s 752 mmHg 94%
02:00 +14°C° 0 mm 3 m/s 752 mmHg 95%
03:00 +13°C° 0 mm 3 m/s 752 mmHg 95%
04:00 +14°C° 0 mm 2 m/s 752 mmHg 96%
05:00 +16°C° 0 mm 2 m/s 752 mmHg 92%
06:00 +17°C° 0 mm 2 m/s 752 mmHg 87%
07:00 +18°C° 0 mm 2 m/s 752 mmHg 83%
08:00 +20°C° 0 mm 2 m/s 752 mmHg 77%
09:00 +23°C° 0 mm 2 m/s 752 mmHg 72%
10:00 +24°C° 0 mm 1 m/s 752 mmHg 66%
11:00 +24°C° 0.1 mm 2 m/s 752 mmHg 66%
12:00 +25°C° 0.1 mm 2 m/s 752 mmHg 66%
13:00 +25°C° 0.1 mm 2 m/s 751 mmHg 66%
14:00 +25°C° 0.2 mm 2 m/s 751 mmHg 66%
15:00 +25°C° 0.2 mm 2 m/s 751 mmHg 66%
16:00 +25°C° 0.2 mm 3 m/s 751 mmHg 66%
17:00 +24°C° 0 mm 3 m/s 751 mmHg 70%
18:00 +22°C° 0 mm 3 m/s 751 mmHg 75%
19:00 +21°C° 0 mm 3 m/s 751 mmHg 79%
20:00 +20°C° 0 mm 3 m/s 751 mmHg 82%
21:00 +19°C° 0 mm 3 m/s 751 mmHg 84%
22:00 +19°C° 0 mm 3 m/s 751 mmHg 87%
23:00 +18°C° 0 mm 2 m/s 751 mmHg 87%

25 Juin, Vendredi

Heure Température Précipitation Vent Pression Humidité
00:00 +18°C° 0 mm 2 m/s 751 mmHg 87%
01:00 +18°C° 0 mm 2 m/s 751 mmHg 88%
02:00 +18°C° 0 mm 2 m/s 751 mmHg 89%
03:00 +18°C° 0 mm 2 m/s 751 mmHg 89%
04:00 +18°C° 0 mm 2 m/s 751 mmHg 90%
05:00 +18°C° 0 mm 2 m/s 751 mmHg 87%
06:00 +18°C° 0 mm 3 m/s 751 mmHg 85%
07:00 +19°C° 0 mm 3 m/s 752 mmHg 82%
08:00 +19°C° 0 mm 3 m/s 752 mmHg 79%
09:00 +20°C° 0 mm 3 m/s 752 mmHg 75%
10:00 +21°C° 0 mm 3 m/s 752 mmHg 71%
11:00 +21°C° 0 mm 3 m/s 752 mmHg 68%
12:00 +22°C° 0 mm 3 m/s 752 mmHg 65%
13:00 +24°C° 0 mm 3 m/s 751 mmHg 62%
14:00 +24°C° 0 mm 3 m/s 751 mmHg 62%
15:00 +24°C° 0 mm 2 m/s 751 mmHg 62%
16:00 +24°C° 0 mm 2 m/s 751 mmHg 62%
17:00 +23°C° 0.1 mm 2 m/s 751 mmHg 66%
18:00 +21°C° 0.1 mm 2 m/s 751 mmHg 71%
19:00 +21°C° 0.1 mm 2 m/s 750 mmHg 76%
20:00 +20°C° 0.1 mm 2 m/s 751 mmHg 80%
21:00 +19°C° 0.1 mm 2 m/s 751 mmHg 84%
22:00 +18°C° 0.1 mm 2 m/s 751 mmHg 88%
23:00 +17°C° 0 mm 2 m/s 751 mmHg 89%
Voir plus

Nous avons besoin de votre consentement

Meteoprog et ses fournisseurs de services peuvent stocker et accéder à des données personnelles telles que des cookies, des identifiants d'appareils ou d'autres technologies similaires sur votre appareil et traiter ces données pour personnaliser le contenu et les publicités, ainsi que pour fournir des fonctionnalités de médias sociaux et analyser le trafic.

  • Stocker et/ou accéder à des informations sur votre appareil

    Des cookies, des identifiants d'appareils ou d'autres informations peuvent être stockés ou accessibles sur votre appareil aux fins indiquées ci-dessus.

  • Annonces et contenus personnalisés, mesure des annonces et des contenus, connaissance de l'audience et développement de produits

    Les annonces et le contenu peuvent être personnalisés en fonction d'un profil. D'autres données peuvent être ajoutées pour mieux personnaliser les annonces et le contenu. Les performances des publicités et du contenu peuvent être mesurées. Il est possible d'obtenir des informations sur le public qui a vu les publicités et le contenu. Ces données peuvent être utilisées pour développer ou améliorer l'expérience de l'utilisateur, les systèmes et les logiciels.

En cliquant sur "J'accepte", vous autorisez l'utilisation de cookies, des identifiants d'appareils, des balises web ou d'autres technologies similaires. Vos paramètres peuvent être modifiés dans le navigateur de votre appareil.

Dans certains cas, des intérêts légitimes peuvent être invoqués plutôt qu'un consentement. Vous pouvez en savoir plus à ce sujet dans notre Politique de confidentialité et de cookies.